Time,TemperatureF,DewpointF,PressureIn,WindDirection,WindDirectionDegrees,WindSpeedMPH,WindSpeedGustMPH,Humidity,HourlyPrecipIn,Conditions,Clouds,dailyrainin,SoftwareType,DateUTC
2013-04-20 00:04:00,60.6,45.7,30.06,West,270,0.0,0.0,58,0.00,,,0.00,WUHU216HW,2013-04-20 07:04:00,
2013-04-20 00:09:00,60.4,45.6,30.07,West,270,0.0,0.2,58,0.00,,,0.00,WUHU216HW,2013-04-20 07:09:00,
2013-04-20 00:14:00,60.4,46.0,30.06,WNW,293,0.0,0.2,59,0.00,,,0.00,WUHU216HW,2013-04-20 07:14:00,
2013-04-20 00:19:00,60.0,45.9,30.06,NW,315,1.1,1.1,59,0.00,,,0.00,WUHU216HW,2013-04-20 07:19:00,
2013-04-20 00:24:00,60.0,45.7,30.06,WNW,293,0.0,1.1,59,0.00,,,0.00,WUHU216HW,2013-04-20 07:24:00,
2013-04-20 00:29:00,60.0,45.7,30.07,WSW,248,0.0,1.1,59,0.00,,,0.00,WUHU216HW,2013-04-20 07:29:00,
2013-04-20 00:34:00,59.9,45.5,30.07,ESE,113,0.0,0.0,59,0.00,,,0.00,WUHU216HW,2013-04-20 07:34:00,
2013-04-20 00:39:00,59.9,45.5,30.07,ESE,113,0.0,0.0,59,0.00,,,0.00,WUHU216HW,2013-04-20 07:39:00,
2013-04-20 00:44:00,59.7,45.3,30.07,SSE,158,0.0,0.0,59,0.00,,,0.00,WUHU216HW,2013-04-20 07:44:00,
2013-04-20 00:49:00,59.5,45.1,30.08,North,0,0.0,0.0,59,0.00,,,0.00,WUHU216HW,2013-04-20 07:49:00,
2013-04-20 00:55:00,59.5,45.1,30.08,North,0,0.0,0.0,59,0.00,,,0.00,WUHU216HW,2013-04-20 07:55:00,
2013-04-20 01:00:00,59.5,45.1,30.08,North,0,0.0,0.0,59,0.00,,,0.00,WUHU216HW,2013-04-20 08:00:00,
2013-04-20 01:05:00,59.5,45.6,30.09,SSW,203,0.0,0.0,60,0.00,,,0.00,WUHU216HW,2013-04-20 08:05:00,
2013-04-20 01:10:00,59.5,45.6,30.09,South,180,0.0,0.0,60,0.00,,,0.00,WUHU216HW,2013-04-20 08:10:00,
2013-04-20 01:15:00,59.1,45.7,30.08,South,180,0.0,0.0,61,0.00,,,0.00,WUHU216HW,2013-04-20 08:15:00,
2013-04-20 01:20:00,58.8,45.7,30.09,South,180,0.0,0.0,62,0.00,,,0.00,WUHU216HW,2013-04-20 08:20:00,
2013-04-20 01:25:00,58.8,46.2,30.09,South,180,0.0,0.0,63,0.00,,,0.00,WUHU216HW,2013-04-20 08:25:00,
2013-04-20 01:30:00,58.8,46.2,30.08,South,180,0.0,0.0,63,0.00,,,0.00,WUHU216HW,2013-04-20 08:30:00,
2013-04-20 01:35:00,58.6,46.4,30.08,South,180,0.0,0.0,64,0.00,,,0.00,WUHU216HW,2013-04-20 08:35:00,
2013-04-20 01:40:00,58.4,46.2,30.08,South,180,0.0,0.0,64,0.00,,,0.00,WUHU216HW,2013-04-20 08:40:00,
2013-04-20 01:45:00,58.2,46.1,30.08,South,180,0.0,0.0,64,0.00,,,0.00,WUHU216HW,2013-04-20 08:45:00,
2013-04-20 01:50:00,58.1,46.3,30.08,South,180,0.0,0.0,65,0.00,,,0.00,WUHU216HW,2013-04-20 08:50:00,
2013-04-20 01:55:00,57.9,46.1,30.08,South,180,0.0,0.0,65,0.00,,,0.00,WUHU216HW,2013-04-20 08:55:00,
2013-04-20 02:00:00,57.7,46.0,30.08,South,180,0.0,0.0,65,0.00,,,0.00,WUHU216HW,2013-04-20 09:00:00,
2013-04-20 02:05:00,57.5,45.8,30.08,South,180,0.0,0.0,65,0.00,,,0.00,WUHU216HW,2013-04-20 09:05:00,
2013-04-20 02:10:00,57.3,46.0,30.07,South,180,0.0,0.0,66,0.00,,,0.00,WUHU216HW,2013-04-20 09:10:00,
2013-04-20 02:15:00,57.0,45.7,30.08,South,180,0.0,0.0,66,0.00,,,0.00,WUHU216HW,2013-04-20 09:15:00,
2013-04-20 02:21:00,56.8,45.9,30.08,South,180,0.0,0.0,67,0.00,,,0.00,WUHU216HW,2013-04-20 09:21:00,
2013-04-20 02:26:00,56.8,45.9,30.08,South,180,0.0,0.0,67,0.00,,,0.00,WUHU216HW,2013-04-20 09:26:00,
2013-04-20 02:31:00,56.4,45.6,30.08,South,180,0.0,0.0,67,0.00,,,0.00,WUHU216HW,2013-04-20 09:31:00,
2013-04-20 02:36:00,56.4,45.6,30.07,South,180,0.0,0.0,67,0.00,,,0.00,WUHU216HW,2013-04-20 09:36:00,
2013-04-20 02:41:00,56.1,45.2,30.07,South,180,0.0,0.0,67,0.00,,,0.00,WUHU216HW,2013-04-20 09:41:00,
2013-04-20 02:46:00,56.1,45.2,30.07,South,180,0.0,0.0,67,0.00,,,0.00,WUHU216HW,2013-04-20 09:46:00,
2013-04-20 02:51:00,55.9,44.7,30.07,ESE,113,0.0,0.0,66,0.00,,,0.00,WUHU216HW,2013-04-20 09:51:00,
2013-04-20 02:56:00,55.7,44.5,30.07,ESE,113,0.0,0.0,66,0.00,,,0.00,WUHU216HW,2013-04-20 09:56:00,
2013-04-20 03:01:00,55.7,44.5,30.07,ESE,113,0.0,0.0,66,0.00,,,0.00,WUHU216HW,2013-04-20 10:01:00,
2013-04-20 03:06:00,55.5,44.3,30.07,ESE,113,0.0,0.0,66,0.00,,,0.00,WUHU216HW,2013-04-20 10:06:00,
2013-04-20 03:11:00,55.5,44.3,30.07,ESE,113,0.0,0.0,66,0.00,,,0.00,WUHU216HW,2013-04-20 10:11:00,
2013-04-20 03:16:00,55.5,44.3,30.07,SE,135,0.0,0.0,66,0.00,,,0.00,WUHU216HW,2013-04-20 10:16:00,
2013-04-20 03:21:00,55.4,44.2,30.08,SE,135,0.0,0.0,66,0.00,,,0.00,WUHU216HW,2013-04-20 10:21:00,
2013-04-20 03:26:00,55.5,44.3,30.08,SE,135,0.0,0.0,66,0.00,,,0.00,WUHU216HW,2013-04-20 10:26:00,
2013-04-20 03:31:00,55.5,44.7,30.08,SE,135,0.0,0.0,67,0.00,,,0.00,WUHU216HW,2013-04-20 10:31:00,
2013-04-20 03:36:00,55.4,45.0,30.08,SE,135,0.0,0.0,68,0.00,,,0.00,WUHU216HW,2013-04-20 10:36:00,
2013-04-20 03:41:00,55.4,45.0,30.08,SE,135,0.0,0.0,68,0.00,,,0.00,WUHU216HW,2013-04-20 10:41:00,
2013-04-20 03:47:00,55.2,44.8,30.08,SE,135,0.0,0.0,68,0.00,,,0.00,WUHU216HW,2013-04-20 10:47:00,
2013-04-20 03:52:00,55.2,44.8,30.08,SE,135,0.0,0.0,68,0.00,,,0.00,WUHU216HW,2013-04-20 10:52:00,
2013-04-20 03:57:00,55.0,44.6,30.08,SE,135,0.0,0.0,68,0.00,,,0.00,WUHU216HW,2013-04-20 10:57:00,
2013-04-20 04:02:00,54.8,44.0,30.08,SE,135,0.0,0.0,67,0.00,,,0.00,WUHU216HW,2013-04-20 11:02:00,
2013-04-20 04:07:00,54.8,44.0,30.08,SE,135,0.0,0.0,67,0.00,,,0.00,WUHU216HW,2013-04-20 11:07:00,
2013-04-20 04:12:00,55.0,44.6,30.08,SE,135,0.0,0.0,68,0.00,,,0.00,WUHU216HW,2013-04-20 11:12:00,
2013-04-20 04:17:00,55.0,44.6,30.08,SE,135,0.0,0.0,68,0.00,,,0.00,WUHU216HW,2013-04-20 11:17:00,
2013-04-20 04:22:00,54.8,44.4,30.08,SE,135,0.0,0.0,68,0.00,,,0.00,WUHU216HW,2013-04-20 11:22:00,
2013-04-20 04:27:00,54.6,44.3,30.08,SE,135,0.0,0.0,68,0.00,,,0.00,WUHU216HW,2013-04-20 11:27:00,
2013-04-20 04:32:00,54.5,44.5,30.08,SE,135,0.0,0.0,69,0.00,,,0.00,WUHU216HW,2013-04-20 11:32:00,
2013-04-20 04:37:00,54.3,44.3,30.08,SE,135,0.0,0.0,69,0.00,,,0.00,WUHU216HW,2013-04-20 11:37:00,
2013-04-20 04:42:00,54.3,44.3,30.08,SE,135,0.0,0.0,69,0.00,,,0.00,WUHU216HW,2013-04-20 11:42:00,
2013-04-20 04:47:00,54.1,44.1,30.08,SE,135,0.0,0.0,69,0.00,,,0.00,WUHU216HW,2013-04-20 11:47:00,
2013-04-20 04:52:00,54.1,44.6,30.08,SE,135,0.0,0.0,70,0.00,,,0.00,WUHU216HW,2013-04-20 11:52:00,
2013-04-20 04:57:00,53.9,44.4,30.08,SE,135,0.0,0.0,70,0.00,,,0.00,WUHU216HW,2013-04-20 11:57:00,
2013-04-20 05:02:00,53.7,44.5,30.08,SE,135,0.0,0.0,71,0.00,,,0.00,WUHU216HW,2013-04-20 12:02:00,
2013-04-20 05:08:00,53.7,44.5,30.08,SE,135,0.0,0.0,71,0.00,,,0.00,WUHU216HW,2013-04-20 12:08:00,
2013-04-20 05:13:00,53.7,44.5,30.08,SE,135,0.0,0.0,71,0.00,,,0.00,WUHU216HW,2013-04-20 12:13:00,
2013-04-20 05:18:00,53.7,44.5,30.08,SE,135,0.0,0.0,71,0.00,,,0.00,WUHU216HW,2013-04-20 12:18:00,
2013-04-20 05:23:00,53.4,44.2,30.08,SE,135,0.0,0.0,71,0.00,,,0.00,WUHU216HW,2013-04-20 12:23:00,
2013-04-20 05:28:00,53.4,44.2,30.08,SE,135,0.0,0.0,71,0.00,,,0.00,WUHU216HW,2013-04-20 12:28:00,
2013-04-20 05:33:00,53.4,44.2,30.07,SE,135,0.0,0.0,71,0.00,,,0.00,WUHU216HW,2013-04-20 12:33:00,
2013-04-20 05:38:00,53.2,44.0,30.08,SE,135,0.0,0.0,71,0.00,,,0.00,WUHU216HW,2013-04-20 12:38:00,
2013-04-20 05:43:00,53.2,43.7,30.08,SE,135,0.0,0.0,70,0.00,,,0.00,WUHU216HW,2013-04-20 12:43:00,
2013-04-20 05:48:00,53.2,43.7,30.08,SE,135,0.0,0.0,70,0.00,,,0.00,WUHU216HW,2013-04-20 12:48:00,
2013-04-20 05:53:00,53.2,43.7,30.08,SE,135,0.0,0.0,70,0.00,,,0.00,WUHU216HW,2013-04-20 12:53:00,
2013-04-20 05:58:00,53.2,44.0,30.08,SE,135,0.0,0.0,71,0.00,,,0.00,WUHU216HW,2013-04-20 12:58:00,
2013-04-20 06:03:00,53.2,44.0,30.08,SE,135,0.0,0.0,71,0.00,,,0.00,WUHU216HW,2013-04-20 13:03:00,
2013-04-20 06:08:00,53.2,44.0,30.08,SE,135,0.0,0.0,71,0.00,,,0.00,WUHU216HW,2013-04-20 13:08:00,
2013-04-20 06:13:00,53.2,44.0,30.08,SE,135,0.0,0.0,71,0.00,,,0.00,WUHU216HW,2013-04-20 13:13:00,
2013-04-20 06:18:00,53.2,44.0,30.08,SE,135,0.0,0.0,71,0.00,,,0.00,WUHU216HW,2013-04-20 13:18:00,
2013-04-20 06:23:00,52.8,43.7,30.08,SE,135,0.0,0.0,71,0.00,,,0.00,WUHU216HW,2013-04-20 13:23:00,
2013-04-20 06:28:00,52.8,43.7,30.08,SE,135,0.0,0.0,71,0.00,,,0.00,WUHU216HW,2013-04-20 13:28:00,
2013-04-20 06:34:00,52.8,44.1,30.08,SE,135,0.0,0.0,72,0.00,,,0.00,WUHU216HW,2013-04-20 13:34:00,
2013-04-20 06:39:00,52.8,44.1,30.08,SE,135,0.0,0.0,72,0.00,,,0.00,WUHU216HW,2013-04-20 13:39:00,
2013-04-20 06:44:00,52.8,44.1,30.08,SE,135,0.0,0.0,72,0.00,,,0.00,WUHU216HW,2013-04-20 13:44:00,
2013-04-20 06:49:00,52.7,43.9,30.08,SE,135,0.0,0.0,72,0.00,,,0.00,WUHU216HW,2013-04-20 13:49:00,
2013-04-20 06:54:00,52.7,44.2,30.08,SE,135,0.0,0.0,73,0.00,,,0.00,WUHU216HW,2013-04-20 13:54:00,
2013-04-20 06:59:00,52.5,44.1,30.08,SE,135,0.0,0.0,73,0.00,,,0.00,WUHU216HW,2013-04-20 13:59:00,
2013-04-20 07:04:00,52.3,43.6,30.08,SE,135,0.0,0.0,72,0.00,,,0.00,WUHU216HW,2013-04-20 14:04:00,
2013-04-20 07:09:00,52.3,43.6,30.08,SE,135,0.0,0.0,72,0.00,,,0.00,WUHU216HW,2013-04-20 14:09:00,
2013-04-20 07:14:00,52.3,43.2,30.08,SE,135,0.0,0.0,71,0.00,,,0.00,WUHU216HW,2013-04-20 14:14:00,
2013-04-20 07:19:00,52.3,43.2,30.08,SE,135,0.0,0.0,71,0.00,,,0.00,WUHU216HW,2013-04-20 14:19:00,
2013-04-20 07:24:00,52.3,42.9,30.08,SE,135,0.0,0.0,70,0.00,,,0.00,WUHU216HW,2013-04-20 14:24:00,
2013-04-20 07:29:00,52.1,42.7,30.08,SE,135,0.0,0.0,70,0.00,,,0.00,WUHU216HW,2013-04-20 14:29:00,
2013-04-20 07:34:00,52.3,42.9,30.08,SE,135,0.0,0.0,70,0.00,,,0.00,WUHU216HW,2013-04-20 14:34:00,
2013-04-20 07:39:00,52.5,43.4,30.08,SSW,203,0.0,0.0,71,0.00,,,0.00,WUHU216HW,2013-04-20 14:39:00,
2013-04-20 07:44:00,52.5,43.0,30.08,WNW,293,0.0,0.0,70,0.00,,,0.00,WUHU216HW,2013-04-20 14:44:00,
2013-04-20 07:50:00,52.8,43.4,30.08,WNW,293,0.0,0.0,70,0.00,,,0.00,WUHU216HW,2013-04-20 14:50:00,
2013-04-20 07:55:00,53.2,43.7,30.08,South,180,0.0,0.0,70,0.00,,,0.00,WUHU216HW,2013-04-20 14:55:00,
2013-04-20 08:00:00,53.4,43.8,30.08,South,180,0.0,0.0,70,0.00,,,0.00,WUHU216HW,2013-04-20 15:00:00,
2013-04-20 08:05:00,53.7,43.8,30.08,South,180,0.0,0.0,69,0.00,,,0.00,WUHU216HW,2013-04-20 15:05:00,
2013-04-20 08:10:00,53.9,44.0,30.08,WSW,248,0.0,0.0,69,0.00,,,0.00,WUHU216HW,2013-04-20 15:10:00,
2013-04-20 08:15:00,54.1,43.7,30.08,WSW,248,0.0,0.0,68,0.00,,,0.00,WUHU216HW,2013-04-20 15:15:00,
2013-04-20 08:20:00,54.5,44.1,30.08,WSW,248,0.0,0.0,68,0.00,,,0.00,WUHU216HW,2013-04-20 15:20:00,
2013-04-20 08:25:00,54.6,44.3,30.08,West,270,0.0,0.0,68,0.00,,,0.00,WUHU216HW,2013-04-20 15:25:00,
2013-04-20 08:30:00,55.2,44.4,30.08,West,270,0.0,0.0,67,0.00,,,0.00,WUHU216HW,2013-04-20 15:30:00,
2013-04-20 08:35:00,55.5,44.7,30.08,West,270,0.0,0.0,67,0.00,,,0.00,WUHU216HW,2013-04-20 15:35:00,
2013-04-20 08:40:00,55.9,45.1,30.08,NW,315,1.1,1.1,67,0.00,,,0.00,WUHU216HW,2013-04-20 15:40:00,
2013-04-20 08:45:00,56.3,45.0,30.08,WNW,293,0.0,1.1,66,0.00,,,0.00,WUHU216HW,2013-04-20 15:45:00,
2013-04-20 08:50:00,56.4,45.2,30.08,WNW,293,0.0,0.0,66,0.00,,,0.00,WUHU216HW,2013-04-20 15:50:00,
2013-04-20 08:55:00,56.8,45.5,30.08,WSW,248,0.0,0.0,66,0.00,,,0.00,WUHU216HW,2013-04-20 15:55:00,
2013-04-20 09:00:00,57.2,45.5,30.08,West,270,0.0,0.0,65,0.00,,,0.00,WUHU216HW,2013-04-20 16:00:00,
2013-04-20 09:05:00,57.3,45.6,30.08,West,270,0.0,0.0,65,0.00,,,0.00,WUHU216HW,2013-04-20 16:05:00,
2013-04-20 09:11:00,57.7,45.6,30.08,NW,315,0.0,0.0,64,0.00,,,0.00,WUHU216HW,2013-04-20 16:11:00,
2013-04-20 09:16:00,58.1,45.9,30.08,WNW,293,0.0,0.0,64,0.00,,,0.00,WUHU216HW,2013-04-20 16:16:00,
2013-04-20 09:21:00,58.4,46.2,30.08,WNW,293,0.0,0.0,64,0.00,,,0.00,WUHU216HW,2013-04-20 16:21:00,
2013-04-20 09:26:00,58.8,46.2,30.08,WNW,293,0.0,0.0,63,0.00,,,0.00,WUHU216HW,2013-04-20 16:26:00,
2013-04-20 09:31:00,58.8,46.2,30.08,WNW,293,0.0,0.0,63,0.00,,,0.00,WUHU216HW,2013-04-20 16:31:00,
2013-04-20 09:36:00,59.3,46.5,30.07,SW,225,0.0,0.0,62,0.00,,,0.00,WUHU216HW,2013-04-20 16:36:00,
2013-04-20 09:41:00,59.9,46.4,30.07,SSW,203,0.0,0.0,61,0.00,,,0.00,WUHU216HW,2013-04-20 16:41:00,
2013-04-20 09:46:00,60.0,46.2,30.07,WNW,293,0.0,0.0,60,0.00,,,0.00,WUHU216HW,2013-04-20 16:46:00,
2013-04-20 09:51:00,60.6,46.7,30.07,West,270,0.0,1.1,60,0.00,,,0.00,WUHU216HW,2013-04-20 16:51:00,
2013-04-20 09:56:00,60.9,46.6,30.07,West,270,0.6,1.1,59,0.00,,,0.00,WUHU216HW,2013-04-20 16:56:00,
2013-04-20 10:01:00,61.1,46.2,30.07,West,270,0.0,0.6,58,0.00,,,0.00,WUHU216HW,2013-04-20 17:01:00,
2013-04-20 10:06:00,61.7,46.7,30.06,West,270,0.0,0.6,58,0.00,,,0.00,WUHU216HW,2013-04-20 17:06:00,
2013-04-20 10:11:00,62.0,46.6,30.06,South,180,0.0,0.0,57,0.00,,,0.00,WUHU216HW,2013-04-20 17:11:00,
2013-04-20 10:16:00,62.4,46.4,30.06,NNW,338,0.0,0.0,56,0.00,,,0.00,WUHU216HW,2013-04-20 17:16:00,
2013-04-20 10:21:00,62.9,46.4,30.06,NNW,338,0.0,0.0,55,0.00,,,0.00,WUHU216HW,2013-04-20 17:21:00,
2013-04-20 10:26:00,63.3,46.7,30.06,SSW,203,0.0,0.0,55,0.00,,,0.00,WUHU216HW,2013-04-20 17:26:00,
2013-04-20 10:31:00,63.6,46.6,30.06,SSW,203,0.0,0.0,54,0.00,,,0.00,WUHU216HW,2013-04-20 17:31:00,
2013-04-20 10:37:00,64.2,46.1,30.06,NE,45,0.0,0.0,52,0.00,,,0.00,WUHU216HW,2013-04-20 17:37:00,
2013-04-20 10:42:00,64.5,46.4,30.06,WSW,248,0.0,0.0,52,0.00,,,0.00,WUHU216HW,2013-04-20 17:42:00,
2013-04-20 10:47:00,65.1,47.0,30.06,West,270,0.0,0.0,52,0.00,,,0.00,WUHU216HW,2013-04-20 17:47:00,
2013-04-20 10:52:00,65.6,47.0,30.06,West,270,0.0,0.6,51,0.00,,,0.00,WUHU216HW,2013-04-20 17:52:00,
2013-04-20 10:57:00,66.0,46.9,30.06,WNW,293,0.0,0.6,50,0.00,,,0.00,WUHU216HW,2013-04-20 17:57:00,
2013-04-20 11:02:00,66.5,47.4,30.06,WNW,293,0.0,0.6,50,0.00,,,0.00,WUHU216HW,2013-04-20 18:02:00,
2013-04-20 11:07:00,66.7,47.6,30.06,WSW,248,0.0,0.6,50,0.00,,,0.00,WUHU216HW,2013-04-20 18:07:00,
2013-04-20 11:12:00,67.1,47.3,30.07,West,270,0.0,0.0,49,0.00,,,0.00,WUHU216HW,2013-04-20 18:12:00,
2013-04-20 11:17:00,67.8,47.9,30.06,SW,225,0.0,0.0,49,0.00,,,0.00,WUHU216HW,2013-04-20 18:17:00,
2013-04-20 11:22:00,68.0,47.5,30.06,SW,225,0.0,1.1,48,0.00,,,0.00,WUHU216HW,2013-04-20 18:22:00,
2013-04-20 11:27:00,68.5,48.0,30.06,WNW,293,0.0,1.1,48,0.00,,,0.00,WUHU216HW,2013-04-20 18:27:00,
2013-04-20 11:32:00,69.0,47.9,30.06,WNW,293,0.0,0.0,47,0.00,,,0.00,WUHU216HW,2013-04-20 18:32:00,
2013-04-20 11:37:00,69.4,48.2,30.06,West,270,0.0,0.0,47,0.00,,,0.00,WUHU216HW,2013-04-20 18:37:00,
2013-04-20 11:42:00,69.6,47.8,30.06,WNW,293,0.0,0.0,46,0.00,,,0.00,WUHU216HW,2013-04-20 18:42:00,
2013-04-20 11:47:00,70.3,47.8,30.06,West,270,0.0,1.1,45,0.00,,,0.00,WUHU216HW,2013-04-20 18:47:00,
2013-04-20 11:52:00,70.5,48.0,30.05,WNW,293,0.0,1.1,45,0.00,,,0.00,WUHU216HW,2013-04-20 18:52:00,
2013-04-20 11:58:00,70.8,48.3,30.05,SE,135,0.0,0.0,45,0.00,,,0.00,WUHU216HW,2013-04-20 18:58:00,
2013-04-20 12:03:00,71.4,48.8,30.05,ESE,113,0.0,0.0,45,0.00,,,0.00,WUHU216HW,2013-04-20 19:03:00,
2013-04-20 12:08:00,72.1,49.4,30.05,WNW,293,0.0,0.0,45,0.00,,,0.00,WUHU216HW,2013-04-20 19:08:00,
2013-04-20 12:13:00,73.0,49.7,30.05,NW,315,0.0,0.8,44,0.00,,,0.00,WUHU216HW,2013-04-20 19:13:00,
2013-04-20 12:18:00,73.2,49.2,30.04,NNW,338,0.0,0.8,43,0.00,,,0.00,WUHU216HW,2013-04-20 19:18:00,
2013-04-20 12:23:00,73.5,49.6,30.04,SSW,203,0.0,0.0,43,0.00,,,0.00,WUHU216HW,2013-04-20 19:23:00,
2013-04-20 12:28:00,73.9,49.3,30.04,SW,225,0.0,0.0,42,0.00,,,0.00,WUHU216HW,2013-04-20 19:28:00,
2013-04-20 12:33:00,74.4,49.8,30.03,WSW,248,0.0,0.0,42,0.00,,,0.00,WUHU216HW,2013-04-20 19:33:00,
2013-04-20 12:38:00,75.0,50.3,30.04,SW,225,0.0,0.0,42,0.00,,,0.00,WUHU216HW,2013-04-20 19:38:00,
2013-04-20 12:43:00,75.3,50.0,30.04,SE,135,0.0,0.0,41,0.00,,,0.00,WUHU216HW,2013-04-20 19:43:00,
2013-04-20 12:48:00,75.3,49.4,30.04,WSW,248,0.0,0.0,40,0.00,,,0.00,WUHU216HW,2013-04-20 19:48:00,
2013-04-20 12:53:00,75.7,49.7,30.04,West,270,0.0,0.4,40,0.00,,,0.00,WUHU216HW,2013-04-20 19:53:00,
2013-04-20 12:58:00,76.1,49.3,30.04,WSW,248,0.0,0.4,39,0.00,,,0.00,WUHU216HW,2013-04-20 19:58:00,
2013-04-20 13:03:00,76.2,49.4,30.03,NW,315,0.0,0.0,39,0.00,,,0.00,WUHU216HW,2013-04-20 20:03:00,
2013-04-20 13:08:00,76.8,49.9,30.03,SE,135,0.0,2.9,39,0.00,,,0.00,WUHU216HW,2013-04-20 20:08:00,
2013-04-20 13:13:00,77.1,49.5,30.03,SW,225,0.0,2.9,33,0.00,,,0.00,WUHU216HW,2013-04-20 20:13:00,
2013-04-20 13:18:00,77.3,49.6,30.03,SW,225,0.8,0.8,38,0.00,,,0.00,WUHU216HW,2013-04-20 20:18:00,
2013-04-20 13:23:00,77.9,50.9,30.03,ESE,113,4.2,4.2,39,0.00,,,0.00,WUHU216HW,2013-04-20 20:23:00,
2013-04-20 13:29:00,78.0,51.8,30.03,SE,135,5.5,5.5,40,0.00,,,0.00,WUHU216HW,2013-04-20 20:29:00,
2013-04-20 13:34:00,77.9,51.7,30.03,WSW,248,6.9,6.9,40,0.00,,,0.00,WUHU216HW,2013-04-20 20:34:00,
2013-04-20 13:39:00,77.1,51.0,30.04,SE,135,6.9,6.9,40,0.00,,,0.00,WUHU216HW,2013-04-20 20:39:00,
2013-04-20 13:44:00,76.8,50.7,30.04,SSE,158,3.1,6.9,40,0.00,,,0.00,WUHU216HW,2013-04-20 20:44:00,
2013-04-20 13:49:00,75.9,50.5,30.03,SE,135,5.8,5.8,41,0.00,,,0.00,WUHU216HW,2013-04-20 20:49:00,
2013-04-20 13:54:00,75.3,50.0,30.04,SE,135,2.4,5.8,41,0.00,,,0.00,WUHU216HW,2013-04-20 20:54:00,
2013-04-20 13:59:00,75.0,50.3,30.03,SW,225,9.8,9.8,42,0.00,,,0.00,WUHU216HW,2013-04-20 20:59:00,
2013-04-20 14:04:00,74.4,50.4,30.03,SW,225,4.4,9.8,43,0.00,,,0.00,WUHU216HW,2013-04-20 21:04:00,
2013-04-20 14:09:00,74.1,50.7,30.04,WSW,248,4.0,4.9,44,0.00,,,0.00,WUHU216HW,2013-04-20 21:09:00,
2013-04-20 14:14:00,73.9,51.1,30.04,SSE,158,3.3,4.9,45,0.00,,,0.00,WUHU216HW,2013-04-20 21:14:00,
2013-04-20 14:19:00,73.0,49.7,30.04,SW,225,1.1,8.0,44,0.00,,,0.00,WUHU216HW,2013-04-20 21:19:00,
2013-04-20 14:24:00,72.6,49.9,30.04,South,180,6.0,8.0,45,0.00,,,0.00,WUHU216HW,2013-04-20 21:24:00,
2013-04-20 14:29:00,72.5,49.8,30.03,SSE,158,1.7,7.6,44,0.00,,,0.00,WUHU216HW,2013-04-20 21:29:00,
2013-04-20 14:34:00,72.5,49.8,30.03,SSW,203,1.3,7.6,45,0.00,,,0.00,WUHU216HW,2013-04-20 21:34:00,
2013-04-20 14:39:00,72.6,49.9,30.03,SSW,203,3.1,3.1,45,0.00,,,0.00,WUHU216HW,2013-04-20 21:39:00,
2013-04-20 14:44:00,72.6,49.3,30.03,WSW,248,4.6,6.2,44,0.00,,,0.00,WUHU216HW,2013-04-20 21:44:00,
2013-04-20 14:50:00,72.6,49.3,30.03,SW,225,2.4,6.2,44,0.00,,,0.00,WUHU216HW,2013-04-20 21:50:00,
2013-04-20 14:55:00,72.6,49.9,30.03,SW,225,7.1,7.1,45,0.00,,,0.00,WUHU216HW,2013-04-20 21:55:00,
2013-04-20 15:00:00,72.3,50.2,30.03,South,180,4.6,7.1,46,0.00,,,0.00,WUHU216HW,2013-04-20 22:00:00,
2013-04-20 15:05:00,72.5,49.8,30.03,SW,225,2.6,6.7,45,0.00,,,0.00,WUHU216HW,2013-04-20 22:05:00,
2013-04-20 15:10:00,72.8,50.1,30.03,SSE,158,1.7,5.1,45,0.00,,,0.00,WUHU216HW,2013-04-20 22:10:00,
2013-04-20 15:15:00,73.0,50.3,30.03,WSW,248,5.5,5.5,45,0.00,,,0.00,WUHU216HW,2013-04-20 22:15:00,
2013-04-20 15:20:00,72.8,50.1,30.02,SSE,158,3.5,5.5,45,0.00,,,0.00,WUHU216HW,2013-04-20 22:20:00,
2013-04-20 15:25:00,73.0,49.7,30.02,SSE,158,0.4,4.4,44,0.00,,,0.00,WUHU216HW,2013-04-20 22:25:00,
2013-04-20 15:30:00,73.2,49.2,30.02,South,180,0.0,4.4,43,0.00,,,0.00,WUHU216HW,2013-04-20 22:30:00,
2013-04-20 15:35:00,73.5,49.6,30.02,South,180,4.4,4.4,43,0.00,,,0.00,WUHU216HW,2013-04-20 22:35:00,
2013-04-20 15:40:00,73.7,49.7,30.02,SSE,158,2.6,4.4,43,0.00,,,0.00,WUHU216HW,2013-04-20 22:40:00,
2013-04-20 15:45:00,73.9,49.9,30.01,South,180,1.7,4.4,43,0.00,,,0.00,WUHU216HW,2013-04-20 22:45:00,
2013-04-20 15:50:00,73.9,49.3,30.02,SSE,158,4.0,4.4,42,0.00,,,0.00,WUHU216HW,2013-04-20 22:50:00,
2013-04-20 15:55:00,73.7,49.1,30.02,SW,225,3.5,8.2,42,0.00,,,0.00,WUHU216HW,2013-04-20 22:55:00,
2013-04-20 16:00:00,73.2,48.6,30.01,SSE,158,2.0,8.2,42,0.00,,,0.00,WUHU216HW,2013-04-20 23:00:00,
2013-04-20 16:05:00,73.2,48.6,30.01,SE,135,3.5,3.5,42,0.00,,,0.00,WUHU216HW,2013-04-20 23:05:00,
2013-04-20 16:11:00,73.2,48.6,30.01,SW,225,2.4,7.8,42,0.00,,,0.00,WUHU216HW,2013-04-20 23:11:00,
2013-04-20 16:16:00,73.2,48.6,30.01,SSE,158,5.3,7.8,42,0.00,,,0.00,WUHU216HW,2013-04-20 23:16:00,
2013-04-20 16:21:00,73.2,48.6,30.01,SSE,158,6.0,6.0,42,0.00,,,0.00,WUHU216HW,2013-04-20 23:21:00,
2013-04-20 16:26:00,73.2,48.6,30.01,SE,135,5.3,6.0,42,0.00,,,0.00,WUHU216HW,2013-04-20 23:26:00,
2013-04-20 16:31:00,73.4,49.4,30.00,ESE,113,6.2,6.2,43,0.00,,,0.00,WUHU216HW,2013-04-20 23:31:00,
2013-04-20 16:36:00,73.5,49.0,30.00,SSE,158,2.6,6.2,42,0.00,,,0.00,WUHU216HW,2013-04-20 23:36:00,
2013-04-20 16:41:00,73.5,49.0,30.00,SSW,203,4.0,6.2,42,0.00,,,0.00,WUHU216HW,2013-04-20 23:41:00,
2013-04-20 16:46:00,72.6,48.7,30.01,South,180,1.3,5.5,43,0.00,,,0.00,WUHU216HW,2013-04-20 23:46:00,
2013-04-20 16:51:00,72.6,48.7,30.00,SSE,158,3.8,5.5,43,0.00,,,0.00,WUHU216HW,2013-04-20 23:51:00,
2013-04-20 16:56:00,72.5,48.6,30.00,SW,225,7.3,7.3,43,0.00,,,0.00,WUHU216HW,2013-04-20 23:56:00,
2013-04-20 17:01:00,72.5,48.6,30.00,SW,225,4.0,7.3,44,0.00,,,0.00,WUHU216HW,2013-04-21 00:01:00,
2013-04-20 17:06:00,72.1,48.9,30.00,SSW,203,2.4,4.0,44,0.00,,,0.00,WUHU216HW,2013-04-21 00:06:00,
2013-04-20 17:11:00,71.7,48.5,30.00,SW,225,5.1,6.2,44,0.00,,,0.00,WUHU216HW,2013-04-21 00:11:00,
2013-04-20 17:16:00,71.4,49.4,30.00,SSE,158,0.8,6.4,46,0.00,,,0.00,WUHU216HW,2013-04-21 00:16:00,
2013-04-20 17:21:00,71.2,48.6,30.00,SSW,203,0.0,6.4,45,0.00,,,0.00,WUHU216HW,2013-04-21 00:21:00,
2013-04-20 17:26:00,71.2,49.2,30.00,SW,225,6.7,6.7,46,0.00,,,0.00,WUHU216HW,2013-04-21 00:26:00,
2013-04-20 17:32:00,70.5,49.2,30.00,SW,225,2.2,6.9,47,0.00,,,0.00,WUHU216HW,2013-04-21 00:32:00,
2013-04-20 17:37:00,70.3,49.6,30.00,SSE,158,3.3,6.9,48,0.00,,,0.00,WUHU216HW,2013-04-21 00:37:00,
2013-04-20 17:42:00,69.6,49.0,30.00,SW,225,5.3,6.7,48,0.00,,,0.00,WUHU216HW,2013-04-21 00:42:00,
2013-04-20 17:47:00,69.2,48.6,30.00,SW,225,2.9,6.7,48,0.00,,,0.00,WUHU216HW,2013-04-21 00:47:00,
2013-04-20 17:52:00,68.9,48.9,30.00,SSW,203,0.0,5.3,49,0.00,,,0.00,WUHU216HW,2013-04-21 00:52:00,
2013-04-20 17:57:00,68.5,48.6,30.00,SW,225,1.7,6.0,49,0.00,,,0.00,WUHU216HW,2013-04-21 00:57:00,
2013-04-20 18:02:00,68.1,48.3,30.00,SSE,158,3.5,6.0,49,0.00,,,0.00,WUHU216HW,2013-04-21 01:02:00,
2013-04-20 18:07:00,67.8,47.9,29.99,SE,135,4.6,6.2,49,0.00,,,0.00,WUHU216HW,2013-04-21 01:07:00,
2013-04-20 18:12:00,67.8,47.9,29.99,SSE,158,3.3,6.2,49,0.00,,,0.00,WUHU216HW,2013-04-21 01:12:00,
2013-04-20 18:17:00,67.8,47.9,29.99,SW,225,2.2,3.3,49,0.00,,,0.00,WUHU216HW,2013-04-21 01:17:00,
2013-04-20 18:22:00,67.8,48.5,29.99,South,180,1.5,3.3,50,0.00,,,0.00,WUHU216HW,2013-04-21 01:22:00,
2013-04-20 18:27:00,67.1,47.9,29.99,SSE,158,2.4,4.9,50,0.00,,,0.00,WUHU216HW,2013-04-21 01:27:00,
2013-04-20 18:32:00,66.3,47.7,29.99,SSE,158,0.8,4.9,51,0.00,,,0.00,WUHU216HW,2013-04-21 01:32:00,
2013-04-20 18:37:00,66.0,47.4,29.99,West,270,3.1,3.1,51,0.00,,,0.00,WUHU216HW,2013-04-21 01:37:00,
2013-04-20 18:42:00,65.6,47.0,29.99,SSW,203,0.0,4.6,51,0.00,,,0.00,WUHU216HW,2013-04-21 01:42:00,
2013-04-20 18:47:00,65.4,47.3,29.99,SW,225,1.5,5.3,52,0.00,,,0.00,WUHU216HW,2013-04-21 01:47:00,
2013-04-20 18:52:00,64.5,46.6,29.99,SSW,203,2.0,5.3,52,0.00,,,0.00,WUHU216HW,2013-04-21 01:52:00,
2013-04-20 18:57:00,64.2,46.6,29.99,South,180,2.4,4.4,53,0.00,,,0.00,WUHU216HW,2013-04-21 01:57:00,
2013-04-20 19:03:00,64.2,47.1,29.99,SE,135,0.8,4.4,54,0.00,,,0.00,WUHU216HW,2013-04-21 02:03:00,
2013-04-20 19:08:00,64.0,47.4,29.99,WSW,248,0.8,2.4,55,0.00,,,0.00,WUHU216HW,2013-04-21 02:08:00,
2013-04-20 19:13:00,63.5,46.9,29.99,SE,135,2.0,2.4,55,0.00,,,0.00,WUHU216HW,2013-04-21 02:13:00,
2013-04-20 19:18:00,62.6,46.6,29.99,SE,135,3.8,3.8,56,0.00,,,0.00,WUHU216HW,2013-04-21 02:18:00,
2013-04-20 19:23:00,62.2,46.2,29.99,SSE,158,1.3,3.8,56,0.00,,,0.00,WUHU216HW,2013-04-21 02:23:00,
2013-04-20 19:28:00,61.7,46.2,29.99,SSE,158,1.3,3.8,57,0.00,,,0.00,WUHU216HW,2013-04-21 02:28:00,
2013-04-20 19:33:00,61.5,46.6,29.99,SSE,158,3.1,5.5,58,0.00,,,0.00,WUHU216HW,2013-04-21 02:33:00,
2013-04-20 19:38:00,61.1,46.2,29.99,SE,135,2.9,5.5,58,0.00,,,0.00,WUHU216HW,2013-04-21 02:38:00,
2013-04-20 19:43:00,60.9,46.6,29.99,SE,135,0.8,3.1,59,0.00,,,0.00,WUHU216HW,2013-04-21 02:43:00,
2013-04-20 19:48:00,60.6,46.2,29.99,SE,135,2.4,3.1,59,0.00,,,0.00,WUHU216HW,2013-04-21 02:48:00,
2013-04-20 19:53:00,60.6,46.2,30.00,South,180,0.6,2.9,59,0.00,,,0.00,WUHU216HW,2013-04-21 02:53:00,
2013-04-20 19:58:00,60.0,46.2,30.00,SW,225,1.3,2.9,60,0.00,,,0.00,WUHU216HW,2013-04-21 02:58:00,
2013-04-20 20:03:00,59.5,45.6,30.00,SSE,158,3.5,3.5,60,0.00,,,0.00,WUHU216HW,2013-04-21 03:03:00,
2013-04-20 20:08:00,59.3,45.9,30.00,SSE,158,2.9,3.5,61,0.00,,,0.00,WUHU216HW,2013-04-21 03:08:00,
2013-04-20 20:13:00,58.8,45.3,30.00,SSE,158,2.4,3.5,61,0.00,,,0.00,WUHU216HW,2013-04-21 03:13:00,
2013-04-20 20:18:00,58.6,45.6,30.00,SSW,203,4.9,4.9,62,0.00,,,0.00,WUHU216HW,2013-04-21 03:18:00,
2013-04-20 20:23:00,58.2,45.3,30.00,SE,135,1.1,4.9,62,0.00,,,0.00,WUHU216HW,2013-04-21 03:23:00,
2013-04-20 20:29:00,57.9,44.9,30.00,SSE,158,0.0,4.9,62,0.00,,,0.00,WUHU216HW,2013-04-21 03:29:00,
2013-04-20 20:34:00,57.7,45.1,30.00,SSE,158,0.0,2.2,63,0.00,,,0.00,WUHU216HW,2013-04-21 03:34:00,
2013-04-20 20:39:00,57.7,45.1,30.00,SSE,158,0.8,2.2,63,0.00,,,0.00,WUHU216HW,2013-04-21 03:39:00,
2013-04-20 20:44:00,57.5,45.0,30.00,South,180,4.6,4.6,63,0.00,,,0.00,WUHU216HW,2013-04-21 03:44:00,
2013-04-20 20:49:00,57.3,44.8,30.00,SE,135,4.9,4.9,63,0.00,,,0.00,WUHU216HW,2013-04-21 03:49:00,
2013-04-20 20:54:00,57.3,44.8,30.00,SW,225,0.0,4.9,63,0.00,,,0.00,WUHU216HW,2013-04-21 03:54:00,
2013-04-20 20:59:00,57.0,44.9,30.01,SE,135,3.3,3.3,64,0.00,,,0.00,WUHU216HW,2013-04-21 03:59:00,
2013-04-20 21:01:00,57.0,44.9,30.01,SSE,158,1.1,3.3,64,0.00,,,0.00,WUHU216HW,2013-04-21 04:01:00,
2013-04-20 21:07:00,56.8,44.7,30.01,SSE,158,0.0,3.3,64,0.00,,,0.00,WUHU216HW,2013-04-21 04:07:00,
2013-04-20 21:12:00,56.8,44.7,30.01,SSE,158,0.0,1.1,64,0.00,,,0.00,WUHU216HW,2013-04-21 04:12:00,
2013-04-20 21:17:00,56.6,44.9,30.01,SSE,158,0.0,1.7,65,0.00,,,0.00,WUHU216HW,2013-04-21 04:17:00,
2013-04-20 21:22:00,56.4,44.8,30.01,SSE,158,0.0,1.7,65,0.00,,,0.00,WUHU216HW,2013-04-21 04:22:00,
2013-04-20 21:27:00,56.4,44.8,30.01,SE,135,1.5,1.5,65,0.00,,,0.00,WUHU216HW,2013-04-21 04:27:00,
2013-04-20 21:32:00,56.3,45.0,30.02,SSE,158,0.0,2.0,66,0.00,,,0.00,WUHU216HW,2013-04-21 04:32:00,
2013-04-20 21:37:00,56.1,44.8,30.01,SSE,158,2.2,2.2,66,0.00,,,0.00,WUHU216HW,2013-04-21 04:37:00,
2013-04-20 21:42:00,55.9,44.7,30.02,South,180,0.0,4.6,66,0.00,,,0.00,WUHU216HW,2013-04-21 04:42:00,
2013-04-20 21:47:00,55.9,45.1,30.02,SE,135,0.0,4.6,67,0.00,,,0.00,WUHU216HW,2013-04-21 04:47:00,
2013-04-20 21:52:00,55.9,45.1,30.02,SE,135,0.0,1.1,67,0.00,,,0.00,WUHU216HW,2013-04-21 04:52:00,
2013-04-20 21:57:00,55.7,44.9,30.02,SSE,158,1.3,1.7,67,0.00,,,0.00,WUHU216HW,2013-04-21 04:57:00,
2013-04-20 22:02:00,55.7,44.9,30.02,SSE,158,0.0,1.7,67,0.00,,,0.00,WUHU216HW,2013-04-21 05:02:00,
2013-04-20 22:07:00,55.5,44.7,30.01,SSE,158,0.4,1.3,67,0.00,,,0.00,WUHU216HW,2013-04-21 05:07:00,
2013-04-20 22:12:00,55.5,45.1,30.01,South,180,0.0,1.7,68,0.00,,,0.00,WUHU216HW,2013-04-21 05:12:00,
2013-04-20 22:17:00,55.4,45.0,30.02,SSE,158,3.1,3.1,68,0.00,,,0.00,WUHU216HW,2013-04-21 05:17:00,
2013-04-20 22:23:00,55.2,45.0,30.02,South,180,0.0,3.1,68,0.00,,,0.00,WUHU216HW,2013-04-21 05:23:00,
2013-04-20 22:28:00,55.2,44.8,30.02,SSW,203,0.0,1.5,68,0.00,,,0.00,WUHU216HW,2013-04-21 05:28:00,
2013-04-20 22:33:00,55.2,44.8,30.01,South,180,0.8,0.8,68,0.00,,,0.00,WUHU216HW,2013-04-21 05:33:00,
2013-04-20 22:38:00,55.2,44.8,30.02,SSE,158,0.0,0.8,68,0.00,,,0.00,WUHU216HW,2013-04-21 05:38:00,
2013-04-20 22:43:00,55.2,45.2,30.01,SSE,158,0.0,0.0,69,0.00,,,0.00,WUHU216HW,2013-04-21 05:43:00,
2013-04-20 22:48:00,55.0,45.0,30.01,SE,135,0.0,0.0,69,0.00,,,0.00,WUHU216HW,2013-04-21 05:48:00,
2013-04-20 22:53:00,55.0,45.0,30.02,SE,135,0.6,0.6,69,0.00,,,0.00,WUHU216HW,2013-04-21 05:53:00,
2013-04-20 22:58:00,54.6,44.7,30.02,SE,135,0.4,1.5,69,0.00,,,0.00,WUHU216HW,2013-04-21 05:58:00,
2013-04-20 23:03:00,54.6,44.7,30.02,SE,135,1.5,1.5,69,0.00,,,0.00,WUHU216HW,2013-04-21 06:03:00,
2013-04-20 23:08:00,54.5,44.9,30.01,SE,135,1.1,1.5,70,0.00,,,0.00,WUHU216HW,2013-04-21 06:08:00,
2013-04-20 23:13:00,54.5,44.9,30.01,SE,135,0.4,1.5,70,0.00,,,0.00,WUHU216HW,2013-04-21 06:13:00,
2013-04-20 23:18:00,54.3,44.7,30.01,SE,135,0.0,1.5,70,0.00,,,0.00,WUHU216HW,2013-04-21 06:18:00,
2013-04-20 23:23:00,54.3,44.7,30.01,SSE,158,0.0,1.5,70,0.00,,,0.00,WUHU216HW,2013-04-21 06:23:00,
2013-04-20 23:28:00,54.3,44.7,30.01,SSE,158,0.0,0.0,70,0.00,,,0.00,WUHU216HW,2013-04-21 06:28:00,
2013-04-20 23:33:00,54.3,44.7,30.01,SSE,158,1.1,1.1,70,0.00,,,0.00,WUHU216HW,2013-04-21 06:33:00,
2013-04-20 23:38:00,54.3,44.7,30.01,SSW,203,0.0,1.1,70,0.00,,,0.00,WUHU216HW,2013-04-21 06:38:00,
2013-04-20 23:43:00,54.3,45.1,30.01,SW,225,0.0,1.1,71,0.00,,,0.00,WUHU216HW,2013-04-21 06:43:00,
2013-04-20 23:49:00,54.3,45.1,30.01,SE,135,2.0,2.4,71,0.00,,,0.00,WUHU216HW,2013-04-21 06:49:00,
2013-04-20 23:54:00,54.1,44.9,30.01,SSE,158,0.0,2.4,71,0.00,,,0.00,WUHU216HW,2013-04-21 06:54:00,
2013-04-20 23:59:00,53.9,44.7,30.01,SSE,158,0.0,2.0,71,0.00,,,0.00,WUHU216HW,2013-04-21 06:59:00,